[[{"header":{"parameterUnit":"m.s-1","parameterCategory":1,"la1":30.2991,"la2":30.254,"lo1":-89.0895,"lo2":-89.0444,"dy":0.0017,"dx":0.0017,"nx":28,"ny":28,"refTime":"2024-03-23T03:00:00:Z","depth":0,"parameterNumber":2,"parameterNumberName":"U-component_of_WINDS"},"data":[0,0,0,0,0,0,0,0,0,0,0,0,0,0,0,0,0,0,0,0,0,0,0,0,0,0,0,0,0,0,0,0,0,0,0,0,0,0,0,0,0,0,0,0,0,0,0,0,0,0,0,0,0,0,0,0,0,0,-1.9219,-1.922,0,-1.9241,-1.9242,-1.9242,-1.9182,-1.918,-1.9179,-1.9177,-1.9201,-1.9203,-1.9206,0,0,0,0,0,0,0,0,0,0,0,0,0,-1.9127,-1.9129,-1.9219,-1.922,-1.922,-1.9241,-1.9242,-1.9242,-1.9183,-1.918,-1.9178,-1.9176,-1.92,-1.9203,-1.9206,0,0,0,0,0,0,0,0,0,0,0,0,0,-1.916,-1.913,-1.9219,-1.9193,-1.9191,-1.9241,-1.9242,-1.9242,-1.9183,-1.918,-1.9178,-1.9175,-1.9199,-1.9203,-1.9206,-1.9284,0,0,-1.9217,-1.9219,0,0,0,0,0,0,0,0,-1.9158,-1.9164,-1.9197,-1.9195,-1.9192,-1.9206,-1.9218,-1.9256,-1.9184,-1.9186,-1.9177,-1.9174,-1.9205,-1.9208,-1.9218,-1.9285,-1.9286,-1.9217,-1.9219,-1.9221,-1.9222,0,0,0,0,0,0,0,-1.9156,-1.9162,-1.9228,-1.9197,-1.9195,-1.918,-1.9182,-1.9225,-1.9211,-1.9186,-1.9181,-1.9185,-1.9203,-1.9215,-1.9218,-1.9286,-1.9217,-1.922,-1.9223,-1.9224,-1.9418,-1.9421,0,0,0,0,0,0,-1.9157,-1.9161,-1.9227,-1.9229,-1.9168,-1.9184,-1.9186,-1.9205,-1.921,-1.9208,-1.9187,-1.9182,-1.921,-1.9214,-1.9219,-1.9311,-1.9221,-1.9224,-1.9226,-1.9415,-1.9419,-1.9422,0,0,0,0,0,0,-1.9155,-1.9164,-1.9226,-1.9194,-1.92,-1.9189,-1.921,-1.9207,-1.9218,-1.9211,-1.9209,-1.9201,-1.9208,-1.9214,-1.9268,-1.9311,-1.9226,-1.9229,-1.9411,-1.9416,-1.942,-1.9495,0,0,0,0,0,0,-1.9153,-1.9163,-1.9193,-1.9195,-1.9202,-1.9275,-1.9213,-1.9209,-1.9224,-1.9218,-1.9224,-1.9222,-1.9206,-1.9263,-1.9272,-1.9314,-1.9232,-1.9408,-1.9413,-1.9419,-1.9489,-1.9502,-1.9513,0,0,0,0,0,-1.915,-1.9213,-1.9194,-1.9203,-1.9239,-1.9278,-1.9282,-1.9262,-1.9228,-1.9257,-1.9253,-1.9222,-1.9304,-1.9269,-1.9278,-1.9323,-1.9405,-1.9412,-1.9418,-1.9484,-1.9499,-1.9513,0,0,0,0,0,0,-1.9217,-1.9213,-1.9192,-1.9258,-1.9269,-1.9268,-1.9305,-1.9279,-1.9301,-1.9294,-1.9268,-1.927,-1.9329,-1.9331,-1.9292,-1.9398,-1.9349,-1.9358,-1.9395,-1.941,-1.9422,-1.9421,-1.9235,0,0,0,0,0,-1.9239,-1.9271,-1.9266,-1.9324,-1.9331,-1.9317,-1.9333,-1.9316,-1.9327,-1.9331,-1.9331,-1.9342,-1.9371,-1.939,-1.9416,-1.9488,-1.9489,-1.9523,-1.9535,-1.9545,-1.9554,-1.9593,-1.9608,-1.9444,-1.9444,-1.9444,0,0,-1.9286,-1.9288,-1.9309,-1.9338,-1.9344,-1.9378,-1.9321,-1.9359,-1.9385,-1.9337,-1.9389,-1.9389,-1.94,-1.9464,-1.9492,-1.9467,-1.9599,-1.9553,-1.9561,-1.9565,-1.9601,-1.9617,-1.9631,-1.9449,-1.9448,-1.9447,0,0,-1.9389,-1.9393,-1.9443,-1.945,-1.946,-1.945,-1.9462,-1.9465,-1.9463,-1.9514,-1.9479,-1.9508,-1.9558,-1.9567,-1.9579,-1.9684,-1.9658,-1.9693,-1.9757,-1.9795,-1.9808,-1.9819,-1.9858,-1.9873,-1.9702,-1.9702,-1.9702,0,-1.9446,-1.9496,-1.9471,-1.9512,-1.9526,-1.9483,-1.9534,-1.9542,-1.9561,-1.9571,-1.9543,-1.9604,-1.9608,-1.9674,-1.97,-1.971,-1.9723,-1.9694,-1.9808,-1.9819,-1.9829,-1.9866,-1.9881,-1.9706,-1.9706,-1.9705,-1.9705,0,-1.9566,-1.9601,-1.964,-1.9659,-1.9676,-1.9722,-1.9704,-1.9725,-1.9707,-1.97,-1.9753,-1.9756,-1.9782,-1.9796,-1.9778,-1.986,-1.9844,-1.9812,-1.9762,-1.985,-1.9884,-1.9898,-1.9713,-1.9711,-1.971,-1.9709,0,0,-1.9715,-1.9718,-1.9733,-1.9741,-1.9748,-1.9775,-1.9818,-1.9843,-1.9862,-1.9876,-1.9912,-1.9954,-1.9925,-1.9938,-1.992,-1.9954,-2.0039,-1.9918,-1.9918,-1.9942,-2.013,-2.0155,-2.0172,-2.002,-2.0022,-2.0024,-2.0129,0,-1.9817,-1.9892,-1.9871,-1.9945,-1.9978,-1.9937,-1.9975,-1.9984,-1.9978,-2.0005,-1.9999,-2.003,-1.9988,-1.9995,-2.0026,-2.0022,-2.0077,-2.0014,-2.0055,-2.0057,-2.0055,-2.019,-2.0217,-2.0316,-2.0142,-2.0145,-2.0146,0,-1.9948,-1.9966,-2.0045,-2.0047,-2.0059,-2.0094,-2.0115,-2.0141,-2.015,-2.0143,-2.0158,-2.0133,-2.0176,-2.0125,-2.0184,-2.0142,-2.0157,-2.0157,-2.016,-2.0165,-2.0108,-2.02,-2.0346,-2.0362,-2.0167,-2.0165,-2.0164,0,-2.005,-2.0094,-2.0147,-2.0155,-2.0158,-2.0183,-2.0186,-2.0192,-2.0209,-2.0227,-2.0237,-2.026,-2.0273,-2.0292,-2.0275,-2.0238,-2.0337,-2.0284,-2.0334,-2.0335,-2.0358,-2.0358,-2.0512,-2.0365,-2.0365,-2.0365,-2.0364,0,-2.0169,-2.0219,-2.0193,-2.0226,-2.028,-2.0255,-2.0309,-2.0307,-2.0313,-2.0345,-2.031,-2.0341,-2.0315,-2.0344,-2.033,-2.0382,-2.0388,-2.0385,-2.0381,-2.0389,-2.039,-2.04,-2.0394,-2.0368,-2.0368,-2.0367,-2.0366,0,-2.0293,-2.0278,-2.0333,-2.0331,-2.0332,-2.0372,-2.0371,-2.0401,-2.0392,-2.0433,-2.0441,-2.0428,-2.0459,-2.0443,-2.0476,-2.0467,-2.0534,-2.052,-2.0532,-2.0529,-2.058,-2.0576,-2.0748,-2.077,-2.0608,-2.0609,-2.0611,0,-2.0371,-2.0408,-2.041,-2.0429,-2.0434,-2.0464,-2.048,-2.0456,-2.0475,-2.0488,-2.0517,-2.0545,-2.0567,-2.0619,-2.0612,-2.0637,-2.0625,-2.0683,-2.0628,-2.0635,-2.0628,-2.0626,-2.063,-2.0695,-2.0697,-2.0698,-2.0699,0,-2.0511,-2.0501,-2.0526,-2.0548,-2.0568,-2.0584,-2.0598,-2.0615,-2.0591,-2.0614,-2.0645,-2.0662,-2.0695,-2.0724,-2.0745,-2.0748,-2.0721,-2.0716,-2.073,-2.0739,-2.0745,-2.0744,-2.0564,-2.0713,-2.0712,-2.0711,-2.071,-2.0709,-2.0616,-2.0647,-2.0654,-2.0682,-2.0689,-2.0703,-2.0731,-2.0725,-2.0751,-2.0776,-2.076,-2.0798,-2.0805,-2.0831,-2.0837,-2.0866,-2.0843,-2.0862,-2.0867,-2.0873,-2.0881,-2.0739,-2.087,-2.0869,-2.0869,-2.0869,-2.0868,0,-2.0756,-2.0757,-2.0784,-2.0803,-2.0826,-2.0796,-2.0809,-2.083,-2.0864,-2.0873,-2.0894,-2.0931,-2.0958,-2.0954,-2.0979,-2.1003,-2.0991,-2.1011,-2.101,-2.1011,-2.0899,-2.0886,-2.102,-2.102,-2.102,-2.102,-2.102,-2.102,-2.0831,-2.0883,-2.0874,-2.0929,-2.0931,-2.0967,-2.0977,-2.0989,-2.0996,-2.1038,-2.1061,-2.1057,-2.1061,-2.1086,-2.111,-2.1108,-2.1119,-2.1144,-2.1138,-2.1034,-2.1019,-2.1005,-2.0992,-2.1146,-2.1147,-2.1247,-2.1248,-2.1249]},{"header":{"parameterUnit":"m.s-1","parameterCategory":1,"la1":30.2991,"la2":30.254,"lo1":-89.0895,"lo2":-89.0444,"dy":0.0017,"dx":0.0017,"nx":28,"ny":28,"refTime":"2024-03-23T03:00:00:Z","depth":0,"parameterNumber":3,"parameterNumberName":"V-component_of_WINDS"},"data":[0,0,0,0,0,0,0,0,0,0,0,0,0,0,0,0,0,0,0,0,0,0,0,0,0,0,0,0,0,0,0,0,0,0,0,0,0,0,0,0,0,0,0,0,0,0,0,0,0,0,0,0,0,0,0,0,0,0,-5.7798,-5.78,0,-5.7956,-5.7957,-5.7959,-5.7909,-5.7906,-5.7903,-5.79,-5.8056,-5.8063,-5.807,0,0,0,0,0,0,0,0,0,0,0,0,0,-5.7451,-5.7457,-5.7798,-5.78,-5.7802,-5.7955,-5.7958,-5.796,-5.791,-5.7906,-5.7902,-5.7898,-5.8054,-5.8062,-5.8071,0,0,0,0,0,0,0,0,0,0,0,0,0,-5.7604,-5.746,-5.7798,-5.7796,-5.7797,-5.7955,-5.7958,-5.796,-5.7911,-5.7906,-5.7901,-5.7896,-5.8051,-5.8061,-5.8072,-5.824,0,0,-5.8106,-5.811,0,0,0,0,0,0,0,0,-5.7596,-5.7617,-5.7794,-5.7796,-5.7798,-5.7908,-5.7892,-5.8054,-5.7912,-5.7868,-5.79,-5.7894,-5.8011,-5.8024,-5.8065,-5.8247,-5.8254,-5.8107,-5.8113,-5.8118,-5.8121,0,0,0,0,0,0,0,-5.7585,-5.761,-5.786,-5.7797,-5.7799,-5.7786,-5.7802,-5.7923,-5.7965,-5.7871,-5.7868,-5.7888,-5.8011,-5.8054,-5.8068,-5.8256,-5.8106,-5.8116,-5.8123,-5.8127,-5.8583,-5.8589,0,0,0,0,0,0,-5.7574,-5.7601,-5.7855,-5.7865,-5.7683,-5.7796,-5.7814,-5.7878,-5.7964,-5.7972,-5.7892,-5.7885,-5.8038,-5.8055,-5.8073,-5.8276,-5.8118,-5.8128,-5.8134,-5.8578,-5.8585,-5.8591,0,0,0,0,0,0,-5.7566,-5.7597,-5.7849,-5.7733,-5.7764,-5.7808,-5.7879,-5.7883,-5.7927,-5.7979,-5.7986,-5.7929,-5.8035,-5.8058,-5.8199,-5.8281,-5.8133,-5.8143,-5.8571,-5.858,-5.8588,-5.8682,0,0,0,0,0,0,-5.7557,-5.7595,-5.766,-5.7734,-5.777,-5.7974,-5.7884,-5.789,-5.7947,-5.7939,-5.8016,-5.8024,-5.8033,-5.8183,-5.821,-5.8293,-5.8151,-5.8564,-5.8575,-5.8585,-5.8672,-5.8692,-5.871,0,0,0,0,0,-5.7544,-5.7679,-5.7663,-5.7694,-5.7853,-5.7979,-5.7999,-5.8008,-5.7954,-5.8019,-5.8052,-5.8021,-5.8267,-5.8198,-5.8228,-5.8315,-5.8559,-5.8572,-5.8584,-5.8663,-5.8688,-5.871,0,0,0,0,0,0,-5.7611,-5.7689,-5.7672,-5.7835,-5.7901,-5.797,-5.8053,-5.8034,-5.8116,-5.8105,-5.8111,-5.8128,-5.8274,-5.8308,-5.823,-5.8482,-5.8405,-5.8424,-5.8454,-5.8479,-5.8498,-5.8487,-5.816,0,0,0,0,0,-5.7645,-5.7742,-5.7804,-5.7941,-5.7975,-5.8009,-5.8064,-5.8065,-5.8133,-5.816,-5.8203,-5.8269,-5.8361,-5.8422,-5.8509,-5.8676,-5.8692,-5.875,-5.877,-5.8785,-5.8802,-5.8893,-5.892,-5.8632,-5.8632,-5.8632,0,0,-5.7715,-5.777,-5.783,-5.7956,-5.8007,-5.8107,-5.8032,-5.8141,-5.8214,-5.8176,-5.8313,-5.8347,-5.842,-5.8575,-5.8646,-5.8609,-5.8885,-5.8801,-5.8813,-5.8822,-5.8909,-5.8936,-5.896,-5.8641,-5.8639,-5.8638,0,0,-5.7895,-5.7946,-5.8067,-5.812,-5.8199,-5.822,-5.8249,-5.8322,-5.8343,-5.8481,-5.8454,-5.8541,-5.8699,-5.8753,-5.8801,-5.9001,-5.8976,-5.9029,-5.913,-5.9219,-5.9242,-5.9262,-5.9334,-5.936,-5.9045,-5.9046,-5.9046,0,-5.7972,-5.8123,-5.813,-5.8242,-5.8298,-5.8269,-5.8391,-5.8441,-5.8544,-5.8583,-5.854,-5.8739,-5.8786,-5.8954,-5.9003,-5.9042,-5.9075,-5.9021,-5.9238,-5.9258,-5.9277,-5.9346,-5.9373,-5.9052,-5.9051,-5.905,-5.905,0,-5.8214,-5.8319,-5.8407,-5.8509,-5.8575,-5.8691,-5.8715,-5.878,-5.8775,-5.8801,-5.8941,-5.8997,-5.9095,-5.9135,-5.913,-5.9302,-5.9276,-5.9236,-5.9159,-5.9311,-5.9375,-5.9402,-5.906,-5.9058,-5.9056,-5.9055,0,0,-5.8441,-5.8547,-5.8579,-5.8625,-5.871,-5.8791,-5.8905,-5.9003,-5.9059,-5.913,-5.9226,-5.9361,-5.9324,-5.9379,-5.938,-5.9458,-5.9614,-5.9407,-5.9409,-5.9445,-5.9807,-5.9838,-5.9868,-5.9597,-5.9602,-5.9606,-5.9801,0,-5.8629,-5.8832,-5.8842,-5.9026,-5.9123,-5.9097,-5.9196,-5.9258,-5.9285,-5.9369,-5.9397,-5.9494,-5.9437,-5.947,-5.9546,-5.9579,-5.9687,-5.9564,-5.9685,-5.969,-5.967,-5.9902,-5.9935,-6.0117,-5.9826,-5.983,-5.9833,0,-5.8876,-5.8957,-5.9151,-5.9223,-5.9264,-5.9354,-5.9445,-5.9526,-5.9596,-5.9609,-5.9671,-5.9661,-5.9776,-5.9695,-5.9854,-5.9771,-5.982,-5.9844,-5.9851,-5.9863,-5.9772,-5.9922,-6.0175,-6.0202,-5.9873,-5.987,-5.9867,0,-5.9023,-5.9181,-5.9318,-5.9358,-5.9445,-5.9509,-5.9547,-5.9612,-5.9671,-5.9749,-5.9787,-5.9877,-5.9927,-5.9997,-6.0011,-5.995,-6.017,-6.0089,-6.0184,-6.0184,-6.0233,-6.023,-6.0499,-6.0263,-6.0263,-6.0262,-6.0262,0,-5.9233,-5.9353,-5.9386,-5.947,-5.9603,-5.9613,-5.9744,-5.9778,-5.9836,-5.9926,-5.9907,-5.9991,-6.0004,-6.0091,-6.0103,-6.0233,-6.0255,-6.0269,-6.0271,-6.0272,-6.027,-6.0305,-6.0293,-6.0269,-6.0268,-6.0266,-6.0265,0,-5.942,-5.9447,-5.9595,-5.9666,-5.9686,-5.9782,-5.9841,-5.9922,-5.9946,-6.0059,-6.0086,-6.0124,-6.0225,-6.0246,-6.0365,-6.0373,-6.0528,-6.0517,-6.0506,-6.0505,-6.0599,-6.0591,-6.0901,-6.0942,-6.0679,-6.0681,-6.0683,0,-5.9553,-5.9645,-5.9726,-5.9786,-5.9829,-5.9924,-5.9985,-5.9997,-6.006,-6.0146,-6.0216,-6.0316,-6.0396,-6.0559,-6.0596,-6.0687,-6.0678,-6.078,-6.0691,-6.069,-6.0681,-6.0676,-6.0685,-6.0798,-6.08,-6.0803,-6.0805,0,-5.9786,-5.9795,-5.9883,-5.9977,-6.005,-6.0123,-6.0193,-6.0242,-6.0264,-6.0336,-6.044,-6.0503,-6.0625,-6.0724,-6.0815,-6.0853,-6.0833,-6.0832,-6.0859,-6.0862,-6.0852,-6.086,-6.0554,-6.0825,-6.0823,-6.0822,-6.0821,-6.082,-5.9951,-6.0032,-6.0103,-6.0202,-6.0256,-6.0322,-6.0401,-6.0436,-6.0524,-6.0626,-6.0627,-6.0742,-6.0808,-6.0929,-6.0972,-6.106,-6.1028,-6.1067,-6.1077,-6.1087,-6.1096,-6.0837,-6.1077,-6.1076,-6.1076,-6.1075,-6.1075,0,-6.0184,-6.0228,-6.032,-6.0419,-6.0497,-6.0472,-6.0548,-6.0615,-6.0716,-6.078,-6.0861,-6.098,-6.1076,-6.1121,-6.1215,-6.1277,-6.127,-6.1302,-6.1298,-6.1307,-6.1119,-6.1087,-6.1306,-6.1306,-6.1306,-6.1306,-6.1306,-6.1306,-6.0315,-6.0451,-6.0469,-6.0631,-6.0673,-6.0787,-6.0833,-6.0893,-6.0945,-6.108,-6.1161,-6.119,-6.1246,-6.1345,-6.1431,-6.1441,-6.1477,-6.1514,-6.152,-6.1344,-6.132,-6.1298,-6.1268,-6.1521,-6.1521,-6.17,-6.1702,-6.1703]}]]